FIN5LA EFHK-ESSA

Flight info

Callsign FIN5LA
Flight time 0h 44m
Altitude 32000
Route ADIVO Y365 POGOK DCT RUNGA N872 XILAN
Aircraft A319/M-SDE3FGHIRWY/LB1

Departure

Time 2026-04-21 11:46
Airport Helsinki Vantaa Airport (EFHK)

Arrival

Time 2026-04-21 12:30
Airport Stockholm-Arlanda Airport (ESSA)
Time Latitude Longitude Altitude Speed Heading
2026-04-21 11:33 60.31867 24.97007 173 ft 0 kts 244°
2026-04-21 11:38 60.31867 24.97009 173 ft 2 kts 244°
2026-04-21 11:38 60.31878 24.97054 173 ft 4 kts 249°
2026-04-21 11:39 60.31884 24.97104 174 ft 4 kts 280°
2026-04-21 11:39 60.31873 24.97145 174 ft 2 kts 329°
2026-04-21 11:39 60.31868 24.97152 174 ft 0 kts 330°
2026-04-21 11:41 60.31890 24.97126 174 ft 7 kts 330°
2026-04-21 11:41 60.31949 24.97062 173 ft 13 kts 333°
2026-04-21 11:41 60.32041 24.96947 172 ft 19 kts 327°
2026-04-21 11:42 60.32162 24.96826 170 ft 20 kts 327°
2026-04-21 11:42 60.32129 24.96602 167 ft 20 kts 228°
2026-04-21 11:42 60.32029 24.96383 166 ft 22 kts 227°
2026-04-21 11:42 60.31923 24.96147 164 ft 22 kts 233°
2026-04-21 11:43 60.31884 24.95855 161 ft 23 kts 226°
2026-04-21 11:43 60.31771 24.95611 160 ft 25 kts 227°
2026-04-21 11:43 60.31651 24.95351 158 ft 26 kts 227°
2026-04-21 11:43 60.31526 24.95075 157 ft 26 kts 227°
2026-04-21 11:44 60.31429 24.94857 155 ft 19 kts 235°
2026-04-21 11:44 60.31427 24.94671 154 ft 0 kts 303°
2026-04-21 11:44 60.31435 24.94654 154 ft 4 kts 310°
2026-04-21 11:44 60.31475 24.94588 154 ft 11 kts 328°
2026-04-21 11:45 60.31570 24.94597 153 ft 18 kts 40°
2026-04-21 11:45 60.31768 24.95044 159 ft 81 kts 47°
2026-04-21 11:45 60.32325 24.96251 165 ft 150 kts 47°
2026-04-21 11:45 60.33081 24.97916 723 ft 159 kts 44°
2026-04-21 11:46 60.33838 24.99529 1595 ft 157 kts 43°
2026-04-21 11:46 60.34598 25.01090 2440 ft 161 kts 43°
2026-04-21 11:46 60.35397 25.02760 3120 ft 170 kts 44°
2026-04-21 11:46 60.36207 25.04632 3732 ft 182 kts 47°
2026-04-21 11:47 60.37016 25.06693 4411 ft 192 kts 50°
2026-04-21 11:47 60.37888 25.08850 5029 ft 207 kts 46°
2026-04-21 11:47 60.38938 25.11081 5536 ft 231 kts 41°
2026-04-21 11:47 60.40401 25.12684 6175 ft 250 kts 12°
2026-04-21 11:48 60.42162 25.12900 7163 ft 256 kts
2026-04-21 11:48 60.43951 25.12933 8283 ft 258 kts
2026-04-21 11:48 60.45755 25.12986 9383 ft 261 kts
2026-04-21 11:48 60.47580 25.12888 10430 ft 266 kts 351°
2026-04-21 11:49 60.49283 25.11319 11339 ft 278 kts 323°
2026-04-21 11:49 60.50479 25.08058 11891 ft 308 kts 296°
2026-04-21 11:49 60.50882 25.03664 12490 ft 331 kts 278°
2026-04-21 11:49 60.50955 24.98937 13380 ft 338 kts 274°
2026-04-21 11:50 60.50905 24.94110 14253 ft 344 kts 272°
2026-04-21 11:50 60.50716 24.89229 15028 ft 353 kts 264°
2026-04-21 11:50 60.50052 24.84368 15815 ft 362 kts 253°
2026-04-21 11:50 60.48996 24.79678 16579 ft 369 kts 248°
2026-04-21 11:51 60.47887 24.74955 17355 ft 373 kts 248°
2026-04-21 11:51 60.46780 24.70164 18124 ft 378 kts 248°
2026-04-21 11:51 60.45662 24.65312 18834 ft 382 kts 248°
2026-04-21 11:51 60.44527 24.60405 19519 ft 386 kts 248°
2026-04-21 11:52 60.43380 24.55464 20206 ft 390 kts 248°
2026-04-21 11:52 60.42229 24.50533 20885 ft 394 kts 248°
2026-04-21 11:52 60.41046 24.45511 21570 ft 397 kts 248°
2026-04-21 11:52 60.39849 24.40445 22264 ft 401 kts 248°
2026-04-21 11:53 60.38639 24.35332 22908 ft 405 kts 248°
2026-04-21 11:53 60.37416 24.30168 23598 ft 409 kts 248°
2026-04-21 11:53 60.36184 24.24970 24183 ft 413 kts 248°
2026-04-21 11:53 60.34935 24.19714 24718 ft 416 kts 248°
2026-04-21 11:54 60.33677 24.14444 25291 ft 418 kts 248°
2026-04-21 11:54 60.32405 24.09143 25837 ft 422 kts 248°
2026-04-21 11:54 60.31120 24.03800 26348 ft 425 kts 248°
2026-04-21 11:54 60.29933 23.98321 26868 ft 426 kts 255°
2026-04-21 11:55 60.29173 23.92641 27369 ft 425 kts 262°
2026-04-21 11:55 60.28544 23.86709 27888 ft 428 kts 262°
2026-04-21 11:55 60.27915 23.80900 28384 ft 431 kts 262°
2026-04-21 11:55 60.27264 23.74983 28884 ft 434 kts 262°
2026-04-21 11:56 60.26604 23.69017 29376 ft 437 kts 262°
2026-04-21 11:56 60.25940 23.63017 29866 ft 441 kts 262°
2026-04-21 11:56 60.25272 23.56971 30335 ft 444 kts 262°
2026-04-21 11:56 60.24595 23.50867 30723 ft 447 kts 261°
2026-04-21 11:57 60.23912 23.44735 31116 ft 450 kts 261°
2026-04-21 11:57 60.23221 23.38551 31482 ft 454 kts 261°
2026-04-21 11:57 60.22524 23.32347 31819 ft 457 kts 261°
2026-04-21 11:57 60.21818 23.26114 32156 ft 457 kts 261°
2026-04-21 11:58 60.20427 23.14016 32227 ft 430 kts 261°
2026-04-21 11:58 60.19103 23.02560 32226 ft 417 kts 262°
2026-04-21 11:59 60.17805 22.91224 32232 ft 416 kts 262°
2026-04-21 11:59 60.16505 22.79910 32232 ft 415 kts 262°
2026-04-21 12:00 60.15174 22.68595 32245 ft 416 kts 261°
2026-04-21 12:00 60.13823 22.57301 32242 ft 416 kts 261°
2026-04-21 12:01 60.12472 22.46032 32227 ft 415 kts 261°
2026-04-21 12:01 60.11117 22.34771 32251 ft 414 kts 261°
2026-04-21 12:02 60.09086 22.18023 32258 ft 414 kts 261°
2026-04-21 12:03 60.07705 22.06825 32262 ft 414 kts 261°
2026-04-21 12:03 60.06323 21.95636 32268 ft 414 kts 261°
2026-04-21 12:04 60.04928 21.84459 32266 ft 414 kts 261°
2026-04-21 12:04 60.03522 21.73295 32262 ft 414 kts 261°
2026-04-21 12:05 60.02111 21.62152 32253 ft 413 kts 261°
2026-04-21 12:05 60.00690 21.51032 32271 ft 413 kts 261°
2026-04-21 12:06 59.99265 21.39989 32279 ft 413 kts 261°
2026-04-21 12:06 59.97786 21.28912 32284 ft 413 kts 260°
2026-04-21 12:07 59.96243 21.17862 32282 ft 413 kts 259°
2026-04-21 12:07 59.94676 21.06838 32286 ft 413 kts 259°
2026-04-21 12:07 59.93892 21.01325 32153 ft 414 kts 259°
2026-04-21 12:08 59.93119 20.95886 31894 ft 413 kts 259°
2026-04-21 12:08 59.92336 20.90375 31603 ft 411 kts 260°
2026-04-21 12:08 59.91558 20.84922 31184 ft 407 kts 260°
2026-04-21 12:08 59.90783 20.79512 30725 ft 405 kts 260°
2026-04-21 12:09 59.90011 20.74126 30254 ft 403 kts 261°
2026-04-21 12:09 59.89243 20.68786 29788 ft 399 kts 261°
2026-04-21 12:09 59.88481 20.63495 29352 ft 395 kts 261°
2026-04-21 12:09 59.87728 20.58255 28925 ft 392 kts 261°
2026-04-21 12:10 59.86978 20.53071 28507 ft 388 kts 260°
2026-04-21 12:10 59.86229 20.47925 28086 ft 385 kts 260°
2026-04-21 12:10 59.85486 20.42829 27659 ft 382 kts 260°
2026-04-21 12:10 59.84747 20.37783 27242 ft 379 kts 260°
2026-04-21 12:11 59.84020 20.32838 26801 ft 376 kts 260°
2026-04-21 12:11 59.83288 20.27873 26364 ft 373 kts 260°
2026-04-21 12:11 59.82560 20.22932 25916 ft 371 kts 260°
2026-04-21 12:11 59.81835 20.18023 25464 ft 369 kts 260°
2026-04-21 12:12 59.81113 20.13155 24999 ft 367 kts 260°
2026-04-21 12:12 59.80389 20.08290 24512 ft 366 kts 260°
2026-04-21 12:12 59.79665 20.03453 24062 ft 365 kts 259°
2026-04-21 12:12 59.78938 19.98622 23547 ft 364 kts 259°
2026-04-21 12:13 59.78213 19.93815 23079 ft 361 kts 259°
2026-04-21 12:13 59.77495 19.89062 22623 ft 359 kts 259°
2026-04-21 12:13 59.76780 19.84335 22173 ft 357 kts 259°
2026-04-21 12:13 59.76067 19.79646 21720 ft 355 kts 258°
2026-04-21 12:14 59.75354 19.74955 21292 ft 353 kts 258°
2026-04-21 12:14 59.74654 19.70322 20870 ft 350 kts 259°
2026-04-21 12:14 59.73997 19.65682 20457 ft 348 kts 260°
2026-04-21 12:14 59.73372 19.61064 20044 ft 346 kts 260°
2026-04-21 12:15 59.72757 19.56464 19630 ft 345 kts 260°
2026-04-21 12:15 59.72143 19.51873 19218 ft 344 kts 259°
2026-04-21 12:15 59.71524 19.47304 18812 ft 343 kts 259°
2026-04-21 12:15 59.70898 19.42757 18386 ft 342 kts 259°
2026-04-21 12:16 59.70272 19.38279 17977 ft 340 kts 259°
2026-04-21 12:16 59.69637 19.33777 17581 ft 338 kts 258°
2026-04-21 12:16 59.69008 19.29317 17190 ft 335 kts 258°
2026-04-21 12:16 59.68383 19.24886 16804 ft 333 kts 258°
2026-04-21 12:17 59.67759 19.20473 16423 ft 332 kts 258°
2026-04-21 12:17 59.67137 19.16090 16046 ft 330 kts 258°
2026-04-21 12:17 59.66519 19.11730 15680 ft 329 kts 258°
2026-04-21 12:17 59.65903 19.07384 15368 ft 325 kts 258°
2026-04-21 12:18 59.65293 19.03099 15147 ft 325 kts 258°
2026-04-21 12:18 59.64676 18.98749 14625 ft 329 kts 258°
2026-04-21 12:18 59.64051 18.94390 14265 ft 328 kts 258°
2026-04-21 12:18 59.63430 18.90078 13893 ft 325 kts 258°
2026-04-21 12:19 59.62812 18.85808 13541 ft 321 kts 258°
2026-04-21 12:19 59.62208 18.81668 13202 ft 315 kts 258°
2026-04-21 12:19 59.61604 18.77534 12865 ft 311 kts 258°
2026-04-21 12:19 59.61008 18.73447 12544 ft 310 kts 258°
2026-04-21 12:20 59.60413 18.69352 12207 ft 308 kts 258°
2026-04-21 12:20 59.59824 18.65299 11880 ft 306 kts 258°
2026-04-21 12:20 59.59241 18.61276 11553 ft 304 kts 258°
2026-04-21 12:20 59.58658 18.57272 11222 ft 302 kts 258°
2026-04-21 12:21 59.58079 18.53310 10897 ft 300 kts 257°
2026-04-21 12:21 59.57496 18.49358 10584 ft 298 kts 257°
2026-04-21 12:21 59.56916 18.45435 10276 ft 297 kts 257°
2026-04-21 12:21 59.56338 18.41540 9937 ft 295 kts 257°
2026-04-21 12:22 59.55760 18.37675 9616 ft 293 kts 257°
2026-04-21 12:22 59.55190 18.33875 9311 ft 292 kts 257°
2026-04-21 12:22 59.54613 18.30020 8998 ft 291 kts 257°
2026-04-21 12:22 59.54045 18.26207 8694 ft 289 kts 257°
2026-04-21 12:23 59.53473 18.22431 8377 ft 288 kts 255°
2026-04-21 12:23 59.52587 18.18871 8054 ft 291 kts 239°
2026-04-21 12:23 59.51370 18.15678 7653 ft 291 kts 235°
2026-04-21 12:23 59.50134 18.12525 7273 ft 289 kts 235°
2026-04-21 12:24 59.48910 18.09401 6890 ft 288 kts 234°
2026-04-21 12:24 59.47702 18.06326 6502 ft 287 kts 234°
2026-04-21 12:24 59.46482 18.03227 6112 ft 284 kts 234°
2026-04-21 12:24 59.45281 18.00175 5743 ft 281 kts 234°
2026-04-21 12:25 59.44093 17.97155 5501 ft 277 kts 235°
2026-04-21 12:25 59.43060 17.93981 5114 ft 271 kts 254°
2026-04-21 12:25 59.42851 17.91643 4991 ft 257 kts 275°
2026-04-21 12:25 59.43597 17.87548 4755 ft 231 kts 311°
2026-04-21 12:26 59.44381 17.86136 4322 ft 233 kts 330°
2026-04-21 12:26 59.45924 17.85143 3670 ft 237 kts 357°
2026-04-21 12:26 59.47510 17.85551 3410 ft 219 kts 12°
2026-04-21 12:26 59.48974 17.86108 3279 ft 212 kts 10°
2026-04-21 12:27 59.50407 17.86609 3018 ft 207 kts
2026-04-21 12:27 59.51833 17.87099 2719 ft 208 kts
2026-04-21 12:27 59.53260 17.87590 2420 ft 208 kts
2026-04-21 12:27 59.54689 17.88095 2105 ft 209 kts 10°
2026-04-21 12:28 59.56081 17.88599 1788 ft 202 kts 10°
2026-04-21 12:28 59.57434 17.89083 1503 ft 193 kts 10°
2026-04-21 12:28 59.58723 17.89545 1251 ft 178 kts
2026-04-21 12:28 59.59875 17.89958 991 ft 165 kts
2026-04-21 12:29 59.60917 17.90332 753 ft 138 kts
2026-04-21 12:29 59.61818 17.90655 559 ft 125 kts
2026-04-21 12:29 59.62642 17.90950 381 ft 118 kts
2026-04-21 12:29 59.63441 17.91242 209 ft 116 kts
2026-04-21 12:30 59.64214 17.91485 142 ft 104 kts
2026-04-21 12:30 59.64833 17.91713 145 ft 74 kts 12°
2026-04-21 12:30 59.65198 17.91892 144 ft 41 kts 27°
2026-04-21 12:30 59.65297 17.92110 139 ft 10 kts 44°
2026-04-21 12:31 59.65322 17.92235 138 ft 11 kts 106°
2026-04-21 12:31 59.65295 17.92382 138 ft 10 kts 109°
2026-04-21 12:31 59.65277 17.92483 138 ft 7 kts 110°
2026-04-21 12:31 59.65293 17.92543 138 ft 4 kts 349°
2026-04-21 12:32 59.65335 17.92524 138 ft 8 kts
2026-04-21 12:32 59.65382 17.92587 138 ft 9 kts 45°
2026-04-21 12:32 59.65427 17.92697 138 ft 11 kts 57°
2026-04-21 12:32 59.65460 17.92848 138 ft 13 kts 70°
2026-04-21 12:33 59.65492 17.93022 138 ft 14 kts 71°
2026-04-21 12:33 59.65520 17.93217 138 ft 15 kts 79°
2026-04-21 12:33 59.65465 17.93353 138 ft 14 kts 174°
2026-04-21 12:33 59.65365 17.93383 138 ft 15 kts 169°
2026-04-21 12:34 59.65305 17.93423 138 ft 5 kts 137°
2026-04-21 12:34 59.65308 17.93510 138 ft 8 kts 76°
2026-04-21 12:34 59.65316 17.93576 138 ft 1 kts 75°
2026-04-21 12:34 59.65317 17.93582 138 ft 0 kts 75°